Theta_e
349 351 352 352 352 350 354 351 347 351 349 345 346 346 345 343 345 349 341 342 341 344 344 343 342 342 342 341 340 340 340 339 339 338 335 332 330 330 331 333 335 337 338 339 339 339 339 339 338
351 353 354 351 350 351 354 347 351 347 344 344 344 344 344 343 341 341 341 343 340 343 344 343 342 339 338 341 341 340 341 340 339 338 334 330 329 329 333 336 335 336 338 340 339 338 337 337 339
352 356 356 353 348 351 352 348 346 344 345 345 342 343 342 343 341 340 341 342 339 341 343 340 338 336 330 334 340 340 340 340 338 333 330 329 329 330 334 336 335 337 341 342 337 337 337 337 338
355 354 356 349 350 346 346 346 343 342 341 344 342 343 342 341 339 337 339 341 337 334 337 331 332 333 330 330 327 327 328 328 328 328 329 330 332 333 335 336 336 341 342 341 338 336 337 337 337
353 356 351 350 348 345 343 343 342 342 341 342 340 342 343 340 336 335 336 338 340 342 340 341 332 331 331 331 330 330 330 330 331 332 332 333 339 335 335 336 336 338 343 339 337 336 337 337 337
356 356 351 352 349 345 343 341 341 340 341 341 342 342 342 339 336 337 334 332 332 333 341 340 332 334 339 335 336 337 337 336 334 338 333 335 340 340 338 337 337 337 340 342 338 337 336 336 339
354 355 352 351 349 347 345 342 342 340 340 341 342 343 342 337 334 334 335 333 336 333 334 339 335 340 338 336 334 334 335 337 339 340 341 337 336 338 339 337 340 339 336 338 338 337 336 336 337
356 354 352 350 351 351 344 343 343 338 341 340 341 343 342 338 339 338 336 337 339 337 336 336 336 340 339 336 335 334 334 331 337 338 337 336 336 336 339 337 338 338 341 336 335 336 337 337 336
358 355 351 349 351 351 344 344 339 339 340 339 339 341 341 340 338 337 337 342 342 339 337 339 339 340 339 336 338 339 334 333 332 334 335 335 336 337 335 338 336 340 341 337 334 337 338 336 336
355 351 350 348 347 349 345 343 340 340 340 340 337 339 340 341 341 343 343 344 343 342 340 338 339 339 336 334 335 340 344 343 340 336 335 340 341 342 340 337 336 339 339 338 335 338 336 335 337
347 353 349 348 346 347 346 343 340 339 341 340 338 340 341 342 343 345 345 344 343 341 341 341 339 337 334 335 335 336 336 337 338 337 338 339 343 341 341 338 338 337 337 339 338 337 336 335 338
346 347 348 347 347 347 347 344 342 338 340 338 338 340 341 343 343 343 343 341 337 338 338 339 338 335 334 333 333 332 334 335 336 338 336 341 343 343 343 344 345 343 339 336 334 335 336 335 335
346 346 347 345 346 346 347 346 346 341 342 337 337 339 341 341 340 341 341 339 340 338 333 334 335 334 332 335 332 333 342 341 341 341 341 345 344 345 345 345 347 342 341 336 333 332 331 333 337
344 346 345 344 344 346 348 347 346 346 342 339 338 337 338 338 338 341 343 343 342 339 333 332 334 335 333 341 337 339 343 345 343 343 345 345 345 345 345 345 345 342 337 337 335 334 333 338 335
346 347 344 344 347 348 344 349 349 346 343 341 339 338 338 338 339 342 341 343 340 342 337 333 333 333 333 341 343 342 344 345 345 345 346 346 347 346 345 343 344 345 334 335 336 341 343 343 342
345 344 346 343 347 347 346 350 346 345 344 343 340 339 338 338 339 342 341 343 342 344 336 337 334 340 338 339 343 345 344 345 346 345 346 347 346 345 345 345 343 344 343 343 343 344 342 343 342
340 339 339 341 344 345 346 349 346 344 344 343 340 340 339 339 340 341 341 342 344 344 344 343 338 343 343 344 345 345 345 344 345 345 346 347 346 346 345 345 343 344 344 344 344 343 342 341 343
334 336 334 338 341 346 347 347 346 344 344 344 341 341 340 340 339 337 338 339 341 344 345 345 344 343 345 345 345 346 345 346 345 345 346 347 346 346 343 343 342 344 343 343 342 342 340 344 344
335 335 335 332 335 345 346 346 346 344 344 344 343 342 342 341 341 341 338 338 340 342 343 344 344 344 344 344 344 345 345 346 346 345 347 347 344 346 342 343 342 343 343 342 342 341 344 343 343
330 331 332 332 339 343 343 345 344 346 345 344 344 343 342 342 342 342 341 340 338 340 341 343 344 344 344 344 344 344 345 346 346 346 345 346 346 346 343 341 342 342 342 341 342 343 343 343 343
331 331 331 331 337 343 342 340 342 344 345 344 344 344 343 342 341 340 339 339 339 341 341 342 342 343 343 344 344 344 345 346 347 345 347 346 346 347 345 342 339 339 340 342 344 345 343 346 341
330 328 328 333 338 337 338 341 342 343 346 346 343 343 344 343 342 341 340 340 340 341 342 342 343 343 343 343 343 344 344 346 346 346 345 346 346 347 347 342 342 341 344 344 347 346 343 342 344
328 330 334 337 337 338 340 341 338 333 338 338 346 343 343 343 343 342 340 341 341 341 341 341 342 343 344 344 343 343 344 345 346 346 346 346 343 345 347 345 344 343 345 345 345 345 345 345 344
323 324 323 328 338 332 334 337 331 331 332 334 339 344 343 343 343 343 342 342 342 342 342 341 341 341 342 342 344 344 344 346 347 346 347 346 346 344 344 343 341 344 344 346 344 342 344 343 343
323 324 327 329 327 327 326 330 331 328 328 333 339 340 343 343 343 343 343 342 342 342 343 342 342 341 341 341 342 343 345 346 346 347 343 345 346 345 342 340 343 342 343 343 341 341 344 344 343
323 324 326 327 327 327 321 327 328 327 326 331 334 343 342 343 343 343 343 342 342 343 343 343 342 342 341 341 341 343 345 346 346 347 346 344 347 346 340 338 340 341 341 339 341 342 342 341 341
323 324 319 321 318 324 324 327 328 331 338 336 332 344 344 344 343 344 343 343 343 342 343 343 343 343 342 341 341 344 346 346 346 347 347 346 345 346 347 343 338 338 340 340 341 342 341 341 341
325 319 324 322 328 327 329 332 332 334 341 340 344 341 344 344 344 344 344 343 343 343 343 343 343 343 343 342 342 343 347 346 347 347 347 345 345 347 347 347 344 339 339 340 341 343 343 344 342
327 327 321 321 321 327 326 330 328 340 341 346 349 349 349 343 344 344 343 343 343 343 343 343 343 343 343 343 343 343 346 347 348 347 346 345 347 346 349 347 344 341 340 340 341 345 345 345 344
323 325 326 332 333 322 327 330 340 344 347 348 348 348 349 347 340 341 342 342 343 342 343 343 343 343 343 343 343 345 345 347 347 348 347 345 344 346 346 349 345 341 341 341 344 346 346 346 345
Wind_Speed
8 7 4 3 0 1 4 3 2 8 4 3 11 5 7 5 3 2 22 16 20 22 23 22 21 21 22 21 21 21 20 21 20 17 14 12 10 7 6 8 6 4 6 8 9 9 10 11 15
9 7 2 1 1 5 3 2 8 6 7 17 15 15 5 3 3 16 16 22 21 23 21 20 20 19 20 20 20 19 18 18 16 14 12 10 8 4 6 6 3 2 5 7 9 10 11 11 12
9 4 1 0 2 5 3 3 8 12 15 10 5 7 4 3 11 18 20 22 22 23 21 20 19 19 19 19 19 18 16 15 14 12 10 7 5 3 5 5 3 2 6 8 9 10 11 12 11
3 1 1 4 7 4 3 7 8 14 10 12 14 8 5 2 23 17 23 23 22 23 21 21 21 19 17 17 18 16 15 13 12 10 8 6 4 4 3 4 4 4 6 8 9 9 11 10 10
4 1 2 4 8 4 5 8 11 9 6 12 8 5 8 23 23 24 20 22 23 21 20 19 20 19 18 16 14 13 12 10 10 9 8 6 4 3 2 3 4 6 7 8 9 10 11 9 9
1 1 2 5 5 6 5 10 10 5 6 11 11 13 6 18 26 23 21 20 21 22 19 19 19 17 15 14 11 10 9 9 9 8 7 6 6 3 1 3 4 6 6 7 8 9 9 10 8
2 0 2 3 3 4 5 10 3 5 8 8 19 8 13 23 28 30 25 20 18 20 20 18 19 16 14 12 10 8 8 7 8 7 7 6 5 4 3 3 4 5 6 7 6 6 5 6 6
1 2 2 2 2 3 11 10 6 4 6 15 18 8 16 36 26 27 28 23 18 19 19 19 18 15 13 11 9 7 7 7 7 7 6 4 3 3 4 5 5 6 6 6 6 6 5 4 5
1 2 2 2 3 6 15 6 6 6 17 7 3 18 29 37 35 32 25 23 22 22 20 19 17 14 12 10 9 8 8 7 6 7 6 6 5 4 4 5 6 7 7 6 6 6 5 5 4
3 2 2 2 3 6 19 13 15 9 15 12 11 18 30 31 28 25 26 24 23 23 21 20 17 14 13 11 11 10 8 7 7 6 8 7 4 3 5 6 6 6 6 6 6 6 4 6 7
1 2 2 3 1 12 18 14 11 18 11 16 21 28 33 32 30 27 26 24 23 22 22 20 18 16 13 12 12 10 9 8 8 8 8 6 5 4 4 5 7 7 7 7 7 7 5 6 7
3 3 2 2 5 9 16 16 12 21 7 20 22 35 36 32 32 30 26 25 24 24 22 20 18 16 14 13 11 11 10 9 9 8 8 6 6 4 4 4 4 4 8 9 7 8 7 6 5
1 2 1 3 1 8 13 16 8 20 10 21 24 32 34 33 29 26 24 24 23 22 21 20 18 18 16 14 13 12 11 9 8 7 7 5 5 3 4 4 3 3 10 11 9 7 6 8 7
4 5 4 3 3 2 8 9 8 14 17 22 28 31 34 34 33 27 25 25 25 22 21 20 20 19 19 15 13 12 10 9 9 7 6 4 4 3 2 4 3 2 8 10 8 8 8 6 11
9 3 2 5 3 2 5 4 12 9 22 23 27 29 32 33 29 32 31 28 25 22 21 22 21 21 20 17 13 12 10 9 9 7 6 6 5 3 4 5 6 5 8 8 8 7 6 7 4
4 4 5 3 6 3 6 4 8 12 22 22 24 26 29 32 35 30 30 27 26 22 23 21 22 20 19 18 15 13 10 10 9 8 6 5 6 4 6 7 9 7 9 7 8 6 4 5 5
3 6 7 7 4 2 5 6 4 8 15 20 24 26 27 28 29 29 30 28 26 25 24 22 22 21 21 18 17 13 12 12 11 8 7 6 7 3 5 6 12 12 10 8 9 7 6 6 5
4 5 8 6 1 5 5 14 3 10 13 18 22 23 26 28 31 32 31 29 27 28 27 24 22 22 21 20 17 15 16 15 14 11 9 6 7 5 4 4 12 13 12 11 8 7 5 4 5
1 4 9 14 6 5 8 12 13 14 16 17 20 24 26 29 26 26 30 28 27 28 26 26 26 25 24 22 21 20 19 17 15 13 11 8 5 6 4 4 10 13 12 11 9 8 6 4 4
2 7 10 13 7 6 6 12 10 14 21 25 25 25 28 23 23 26 27 27 30 29 29 28 27 28 27 25 22 19 18 16 13 11 13 10 9 8 5 4 9 11 11 10 9 8 6 5 4
4 7 7 6 8 4 8 10 3 5 15 19 21 25 26 29 28 28 30 31 30 31 31 30 28 28 26 26 25 22 19 18 15 15 16 14 11 9 7 7 8 10 11 10 8 8 7 5 5
9 4 5 6 3 3 4 5 7 1 1 11 21 27 27 29 28 26 31 33 33 33 32 31 29 27 25 26 26 24 21 20 18 12 14 14 14 13 10 10 10 10 10 10 8 8 8 7 7
6 2 1 2 1 4 1 4 5 7 7 8 14 26 31 31 31 32 35 35 32 33 32 31 31 30 28 27 26 25 24 22 17 14 13 15 14 15 14 13 14 12 11 10 8 8 8 8 7
1 2 3 3 1 3 2 4 7 4 9 12 8 16 29 31 32 31 33 31 31 28 31 31 31 30 29 30 29 27 24 23 21 15 13 15 17 17 18 17 16 14 13 11 9 8 9 9 8
1 1 3 6 3 5 3 3 9 5 10 12 15 10 23 29 29 30 30 32 34 33 31 31 31 31 31 29 31 29 26 23 19 15 14 16 16 18 18 18 19 16 13 11 9 9 10 10 10
3 3 4 7 8 5 1 4 3 1 13 18 13 5 14 23 24 27 31 35 37 35 32 30 30 27 29 29 30 28 27 24 22 19 16 16 17 17 15 17 18 15 13 13 11 12 11 11 12
2 2 2 3 0 3 0 4 9 7 14 20 14 3 11 21 25 26 26 28 33 33 31 29 28 28 28 28 29 28 27 27 25 22 19 17 15 16 17 18 19 18 16 15 14 14 12 11 11
1 5 3 1 3 5 3 3 4 13 16 15 14 11 2 11 17 21 25 29 31 32 32 29 28 26 25 27 28 30 26 26 25 24 23 21 18 18 19 20 22 23 21 20 18 17 14 13 12
1 1 4 2 2 3 4 2 1 8 9 12 12 11 7 4 12 16 19 23 26 29 32 31 29 28 27 28 28 30 29 27 26 26 24 23 22 22 22 21 22 24 25 23 21 19 16 14 13
3 3 1 3 4 0 3 1 4 3 5 7 10 11 8 3 5 10 16 21 22 26 28 29 31 29 26 27 26 27 30 30 29 27 27 26 26 24 24 23 22 21 24 25 23 21 19 16 15
Wind_Direction
149 129 88 63 134 61 52 55 62 115 103 62 129 112 93 52 19 110 147 151 156 153 143 143 142 140 141 143 141 141 142 145 145 144 140 131 120 107 101 100 99 87 87 82 92 95 103 103 93
149 128 131 144 19 69 62 56 112 90 110 109 88 111 91 67 72 139 146 149 156 155 148 145 143 139 138 145 148 146 147 149 149 148 148 140 130 118 99 90 81 81 97 96 103 103 111 115 114
134 104 116 94 45 50 76 114 121 122 141 129 99 140 74 117 142 141 148 149 156 154 150 148 147 145 141 144 147 150 152 153 154 154 155 150 143 131 113 90 72 85 110 116 118 112 116 118 121
137 176 157 58 65 42 87 146 133 137 123 144 130 84 87 191 141 145 148 153 155 153 151 150 150 150 146 149 147 149 148 156 158 161 156 149 150 140 124 81 77 97 117 122 122 119 122 120 128
162 251 98 79 70 75 98 145 146 135 124 135 106 120 104 141 145 149 152 155 157 154 150 153 153 153 151 153 155 158 158 170 172 165 159 151 151 153 144 83 90 110 112 125 130 122 120 122 132
171 288 64 60 75 99 112 149 154 118 141 136 106 115 106 151 154 151 154 155 158 155 154 156 156 155 158 155 161 163 167 177 188 179 176 166 164 161 138 106 116 114 124 121 137 137 130 127 127
270 227 84 107 111 140 153 162 190 128 142 144 141 108 136 153 159 151 152 163 167 164 162 163 161 162 162 162 163 170 165 175 178 178 178 176 165 165 170 149 138 130 133 140 138 145 144 130 130
262 265 126 147 152 101 152 161 153 146 83 128 139 146 160 164 164 159 164 177 181 174 172 166 170 171 167 170 168 166 169 176 159 165 158 168 167 170 162 164 165 152 145 153 157 151 145 133 135
204 214 56 128 171 131 158 144 126 113 134 139 105 148 161 165 167 174 177 183 182 180 177 178 182 180 175 175 169 172 170 153 165 169 159 153 168 168 171 178 182 170 165 169 169 164 147 127 129
230 300 61 341 214 162 165 151 144 138 146 141 102 144 161 165 174 179 186 185 186 184 183 187 186 184 180 177 182 173 166 170 166 165 159 160 159 161 174 176 185 182 170 165 174 173 158 126 129
268 332 36 349 188 161 161 152 151 148 177 171 156 158 169 173 180 186 191 191 187 185 185 185 183 182 180 181 180 171 168 175 175 177 170 172 158 151 156 172 179 184 188 180 174 179 171 156 154
302 26 17 8 143 152 168 161 162 171 179 182 163 168 171 178 184 187 191 192 192 192 193 189 188 185 180 181 177 171 174 177 179 173 174 163 177 191 185 177 210 217 203 193 181 178 185 184 175
223 45 295 336 239 188 169 184 179 200 154 167 167 170 177 181 188 194 195 193 195 197 193 192 189 184 180 179 174 174 171 174 171 159 170 182 191 219 234 229 252 273 190 192 187 186 181 196 210
317 302 257 282 259 201 199 200 186 217 172 159 173 180 185 189 191 193 196 197 199 195 193 192 191 188 185 180 177 178 181 188 186 178 165 174 200 224 272 240 234 208 178 189 193 208 213 248 221
294 313 254 198 164 142 134 162 225 179 183 170 180 185 190 194 194 199 198 198 193 195 195 193 191 192 193 189 186 186 190 201 199 197 200 217 240 248 252 240 219 200 187 192 198 208 229 253 237
328 347 345 140 178 164 183 256 202 185 175 184 181 185 189 193 200 202 201 200 200 198 194 192 191 189 188 192 195 196 201 212 215 223 225 236 236 239 253 242 219 210 189 191 202 211 195 217 230
19 332 337 318 207 147 216 306 134 173 189 181 186 186 190 193 199 205 204 204 206 203 199 197 196 196 196 200 206 205 213 222 226 234 230 244 230 253 268 246 207 201 193 196 194 201 213 230 240
330 332 323 295 346 210 247 277 221 179 193 194 187 191 191 196 203 204 205 208 211 214 212 208 208 209 211 213 218 220 228 229 229 234 232 232 223 229 256 224 199 194 195 200 201 211 218 228 226
208 284 297 300 282 233 240 271 269 200 199 195 200 194 199 203 201 203 205 208 213 217 217 216 218 219 217 218 222 225 232 234 233 232 235 237 211 217 235 203 194 194 196 197 199 205 203 211 212
250 307 304 303 320 231 294 285 278 199 210 203 198 202 205 202 198 205 207 208 213 215 217 219 221 224 223 224 226 231 234 235 236 235 227 234 227 226 225 200 196 190 190 192 185 181 193 206 229
256 271 301 305 321 229 315 294 282 226 224 215 212 213 209 201 197 198 202 208 211 218 219 220 223 226 227 227 228 232 238 235 236 236 226 229 229 217 217 201 195 191 189 186 187 197 202 212 215
272 259 279 276 291 323 354 298 309 24 225 217 213 216 216 208 204 200 199 206 213 216 223 227 228 229 231 232 231 236 241 238 240 247 232 231 231 212 222 216 199 191 185 188 209 212 209 216 222
259 100 85 87 196 282 151 256 291 8 16 338 229 214 215 213 207 201 204 204 212 222 227 228 230 232 234 235 237 237 239 238 243 245 232 222 214 228 222 225 208 198 203 212 221 227 226 226 223
31 114 73 91 164 263 44 275 300 22 335 328 314 227 212 210 211 212 210 211 211 220 231 236 238 238 237 239 239 238 237 234 235 234 230 224 231 227 224 220 214 207 209 212 218 226 229 229 232
147 255 245 253 247 275 30 238 278 309 331 327 315 277 211 207 208 211 211 213 218 218 225 233 238 242 240 236 234 235 232 229 228 229 228 224 224 216 218 212 205 207 209 214 221 234 235 237 244
4 288 247 245 236 255 28 228 256 282 322 325 329 294 191 203 206 209 213 214 218 221 225 231 234 236 239 233 225 229 228 224 223 225 227 226 230 226 221 213 212 208 209 216 229 232 231 238 241
123 217 26 129 171 258 177 264 276 346 1 2 1 44 175 194 202 209 211 220 222 225 226 228 232 232 234 234 226 227 227 223 223 222 223 226 224 221 224 224 218 216 221 227 234 230 230 235 245
15 121 221 194 213 230 195 269 298 343 344 346 5 3 219 210 207 214 214 219 224 228 232 234 236 237 238 233 228 228 230 226 225 225 226 223 224 222 224 229 229 226 229 231 231 230 231 239 246
81 162 65 109 291 245 231 198 110 320 333 328 348 345 333 271 233 224 224 223 227 230 228 227 232 234 233 232 232 229 231 230 227 227 229 229 228 228 228 234 235 233 232 231 231 233 236 241 248
308 356 328 269 177 223 318 199 42 347 349 341 339 349 345 330 231 229 236 233 231 230 231 228 225 228 230 230 232 234 235 233 231 231 232 232 232 231 234 236 239 237 233 230 229 234 240 242 246